Tiempo cada hora Baronissi

Hoy, 25 Junio, Viernes

Tiempo Temperatura Precipitaciones Viento Presión Humedad
00:00 +27°C° 0 mm 1 mps 742 mmHg 46%
01:00 +27°C° 0 mm 1 mps 742 mmHg 46%
02:00 +26°C° 0 mm 1 mps 742 mmHg 46%
03:00 +26°C° 0 mm 1 mps 741 mmHg 46%
04:00 +26°C° 0 mm 1 mps 741 mmHg 46%
05:00 +28°C° 0 mm 1 mps 741 mmHg 43%
06:00 +29°C° 0 mm 1 mps 742 mmHg 41%
07:00 +31°C° 0 mm 1 mps 742 mmHg 38%
08:00 +32°C° 0 mm 2 mps 742 mmHg 35%
09:00 +35°C° 0 mm 3 mps 742 mmHg 31%
10:00 +36°C° 0 mm 4 mps 742 mmHg 28%
11:00 +37°C° 0 mm 4 mps 742 mmHg 27%
12:00 +37°C° 0 mm 3 mps 742 mmHg 26%
13:00 +37°C° 0 mm 3 mps 741 mmHg 25%
14:00 +37°C° 0 mm 3 mps 741 mmHg 27%
15:00 +36°C° 0 mm 3 mps 741 mmHg 29%
16:00 +35°C° 0 mm 3 mps 741 mmHg 32%
17:00 +33°C° 0 mm 3 mps 741 mmHg 38%
18:00 +30°C° 0 mm 2 mps 741 mmHg 44%
19:00 +29°C° 0 mm 1 mps 741 mmHg 49%
20:00 +28°C° 0 mm 1 mps 741 mmHg 51%
21:00 +27°C° 0 mm 1 mps 741 mmHg 52%
22:00 +26°C° 0 mm 1 mps 741 mmHg 53%
23:00 +25°C° 0 mm 1 mps 741 mmHg 53%

Mañana, 26 Junio, Sábado

Tiempo Temperatura Precipitaciones Viento Presión Humedad
00:00 +25°C° 0 mm 1 mps 740 mmHg 53%
01:00 +25°C° 0 mm 1 mps 740 mmHg 53%
02:00 +24°C° 0 mm 1 mps 740 mmHg 52%
03:00 +24°C° 0 mm 1 mps 740 mmHg 52%
04:00 +22°C° 0 mm 0 mps 740 mmHg 52%
05:00 +24°C° 0 mm 0 mps 740 mmHg 48%
06:00 +27°C° 0 mm 1 mps 741 mmHg 44%
07:00 +29°C° 0 mm 1 mps 741 mmHg 40%
08:00 +30°C° 0 mm 1 mps 741 mmHg 37%
09:00 +32°C° 0 mm 2 mps 741 mmHg 33%
10:00 +34°C° 0 mm 3 mps 741 mmHg 30%
11:00 +35°C° 0 mm 3 mps 741 mmHg 30%
12:00 +35°C° 0 mm 3 mps 741 mmHg 29%
13:00 +35°C° 0 mm 3 mps 740 mmHg 28%
14:00 +35°C° 0 mm 3 mps 740 mmHg 29%
15:00 +34°C° 0 mm 3 mps 740 mmHg 30%
16:00 +34°C° 0 mm 3 mps 740 mmHg 31%
17:00 +31°C° 0 mm 3 mps 740 mmHg 37%
18:00 +30°C° 0 mm 2 mps 740 mmHg 42%
19:00 +28°C° 0 mm 2 mps 740 mmHg 47%
20:00 +27°C° 0 mm 2 mps 740 mmHg 51%
21:00 +25°C° 0 mm 1 mps 740 mmHg 54%
22:00 +24°C° 0 mm 1 mps 740 mmHg 58%
23:00 +24°C° 0 mm 1 mps 740 mmHg 58%

Pasado mañana, 27 Junio, Domingo

Tiempo Temperatura Precipitaciones Viento Presión Humedad
00:00 +23°C° 0 mm 1 mps 740 mmHg 58%
01:00 +23°C° 0 mm 1 mps 740 mmHg 58%
02:00 +23°C° 0 mm 1 mps 740 mmHg 58%
03:00 +22°C° 0 mm 1 mps 740 mmHg 58%
04:00 +22°C° 0 mm 1 mps 740 mmHg 58%
05:00 +24°C° 0 mm 1 mps 740 mmHg 52%
06:00 +26°C° 0 mm 1 mps 740 mmHg 45%
07:00 +28°C° 0 mm 1 mps 740 mmHg 39%
08:00 +30°C° 0 mm 1 mps 740 mmHg 33%
09:00 +32°C° 0 mm 1 mps 740 mmHg 26%
10:00 +34°C° 0 mm 1 mps 740 mmHg 20%
11:00 +36°C° 0 mm 2 mps 740 mmHg 20%
12:00 +36°C° 0 mm 3 mps 740 mmHg 19%
13:00 +36°C° 0 mm 3 mps 740 mmHg 19%
14:00 +36°C° 0 mm 3 mps 740 mmHg 18%
15:00 +36°C° 0 mm 3 mps 740 mmHg 17%
16:00 +37°C° 0 mm 2 mps 740 mmHg 16%
17:00 +35°C° 0 mm 2 mps 740 mmHg 21%
18:00 +32°C° 0 mm 1 mps 740 mmHg 26%
19:00 +30°C° 0 mm 1 mps 740 mmHg 30%
20:00 +29°C° 0 mm 1 mps 740 mmHg 31%
21:00 +28°C° 0 mm 1 mps 740 mmHg 32%
22:00 +26°C° 0 mm 1 mps 740 mmHg 34%
23:00 +26°C° 0 mm 1 mps 740 mmHg 34%

28 Junio, Lunes

Tiempo Temperatura Precipitaciones Viento Presión Humedad
00:00 +26°C° 0 mm 1 mps 740 mmHg 35%
01:00 +23°C° 0 mm 0 mps 740 mmHg 36%
02:00 +25°C° 0 mm 1 mps 740 mmHg 35%
03:00 +25°C° 0 mm 1 mps 740 mmHg 35%
04:00 +25°C° 0 mm 1 mps 740 mmHg 34%
05:00 +27°C° 0 mm 1 mps 740 mmHg 31%
06:00 +29°C° 0 mm 1 mps 740 mmHg 28%
07:00 +31°C° 0 mm 1 mps 740 mmHg 25%
08:00 +32°C° 0 mm 1 mps 740 mmHg 22%
09:00 +35°C° 0 mm 2 mps 741 mmHg 20%
10:00 +37°C° 0 mm 2 mps 741 mmHg 18%
11:00 +37°C° 0 mm 3 mps 741 mmHg 18%
12:00 +38°C° 0 mm 3 mps 741 mmHg 18%
13:00 +38°C° 0 mm 4 mps 741 mmHg 18%
14:00 +38°C° 0 mm 3 mps 741 mmHg 18%
15:00 +38°C° 0 mm 3 mps 740 mmHg 19%
16:00 +37°C° 0 mm 2 mps 740 mmHg 20%
17:00 +35°C° 0 mm 2 mps 740 mmHg 24%
18:00 +33°C° 0 mm 1 mps 740 mmHg 28%
19:00 +31°C° 0 mm 1 mps 740 mmHg 31%
20:00 +30°C° 0 mm 1 mps 740 mmHg 33%
21:00 +28°C° 0 mm 1 mps 740 mmHg 35%
22:00 +27°C° 0 mm 1 mps 741 mmHg 37%
23:00 +27°C° 0 mm 1 mps 741 mmHg 38%

29 Junio, Martes

Tiempo Temperatura Precipitaciones Viento Presión Humedad
00:00 +26°C° 0 mm 1 mps 741 mmHg 40%
01:00 +26°C° 0 mm 1 mps 741 mmHg 41%
02:00 +25°C° 0 mm 1 mps 740 mmHg 43%
03:00 +25°C° 0 mm 1 mps 740 mmHg 44%
04:00 +25°C° 0 mm 1 mps 740 mmHg 45%
05:00 +27°C° 0 mm 1 mps 740 mmHg 43%
06:00 +28°C° 0 mm 1 mps 740 mmHg 41%
07:00 +30°C° 0 mm 1 mps 741 mmHg 40%
08:00 +32°C° 0 mm 2 mps 741 mmHg 34%
09:00 +35°C° 0 mm 2 mps 741 mmHg 29%
10:00 +37°C° 0 mm 3 mps 741 mmHg 24%
11:00 +38°C° 0 mm 3 mps 740 mmHg 23%
12:00 +38°C° 0 mm 3 mps 740 mmHg 23%
13:00 +38°C° 0 mm 3 mps 740 mmHg 22%
14:00 +38°C° 0 mm 3 mps 740 mmHg 23%
15:00 +37°C° 0 mm 3 mps 740 mmHg 24%
16:00 +37°C° 0 mm 3 mps 740 mmHg 25%
17:00 +35°C° 0 mm 2 mps 740 mmHg 29%
18:00 +32°C° 0 mm 2 mps 740 mmHg 34%
19:00 +30°C° 0 mm 1 mps 740 mmHg 38%
20:00 +29°C° 0 mm 1 mps 740 mmHg 41%
21:00 +28°C° 0 mm 1 mps 740 mmHg 43%
22:00 +27°C° 0 mm 1 mps 740 mmHg 46%
23:00 +26°C° 0 mm 1 mps 740 mmHg 47%

30 Junio, Miércoles

Tiempo Temperatura Precipitaciones Viento Presión Humedad
00:00 +26°C° 0 mm 1 mps 740 mmHg 49%
01:00 +25°C° 0 mm 1 mps 740 mmHg 51%
02:00 +25°C° 0 mm 1 mps 740 mmHg 52%
03:00 +25°C° 0 mm 1 mps 740 mmHg 53%
04:00 +24°C° 0 mm 1 mps 739 mmHg 54%
05:00 +26°C° 0 mm 1 mps 739 mmHg 50%
06:00 +28°C° 0 mm 1 mps 740 mmHg 45%
07:00 +30°C° 0 mm 1 mps 740 mmHg 40%
08:00 +31°C° 0 mm 1 mps 740 mmHg 36%
09:00 +34°C° 0 mm 2 mps 740 mmHg 31%
10:00 +36°C° 0 mm 2 mps 740 mmHg 27%
11:00 +36°C° 0 mm 3 mps 740 mmHg 27%
12:00 +37°C° 0 mm 3 mps 740 mmHg 27%
13:00 +37°C° 0 mm 4 mps 740 mmHg 26%
14:00 +37°C° 0 mm 3 mps 740 mmHg 27%
15:00 +36°C° 0 mm 3 mps 739 mmHg 28%
16:00 +36°C° 0 mm 3 mps 739 mmHg 29%
17:00 +34°C° 0 mm 3 mps 739 mmHg 33%
18:00 +31°C° 0 mm 2 mps 739 mmHg 38%
19:00 +30°C° 0 mm 2 mps 739 mmHg 43%
20:00 +29°C° 0 mm 1 mps 739 mmHg 45%
21:00 +27°C° 0 mm 1 mps 739 mmHg 46%
22:00 +26°C° 0 mm 1 mps 740 mmHg 48%
23:00 +26°C° 0 mm 1 mps 739 mmHg 49%
Mostrar más

Necesitamos Su Consentimiento

Meteoprog y nuestros Proveedores de Servicios pueden almacenar y acceder a sus datos personales como cookies, identificadores de dispositivo u otras tecnologías similares de su dispositivo y procesar dichos datos para personalizar contenido y anuncios, además de ofrecer funciones de redes sociales y analizar el tráfico.

  • Almacenar y/o acceder a información en su dispositivo

    Se puede almacenar o acceder a cookies, identificadores de dispositivo u otra información de su dispositivo para los fines anteriormente indicados.

  • Anuncios y contenido personalizados, medición de anuncios y contenido, percepciones del público, y desarrollo de productos

    Los anuncios y el contenido pueden personalizarse en base a su perfil. Se pueden añadir más datos para personalizar mejor los anuncios y contenidos. Se puede medir el rendimiento de los anuncios y contenidos. Se puede obtener la percepción sobre el público que ha visto los anuncios y contenidos. Dichos datos pueden usarse para desarrollar o mejorar la experiencia del usuario, sistemas y software.

Al hacer clic en ‘Estoy De Acuerdo’ usted permitirá el uso de las cookies, identificadores de dispositivo, balizas web u otras tecnologías similares indicadas. Su configuración puede cambiarse desde el navegador de su dispositivo.

Para ciertos fines, los intereses legítimos pueden ser considerados por encima del consentimiento. Puede leer más sobre ello en nuestra Política de Privacidad y Cookies.